contact:dominique.lefevre@mio.osupytheas.fr, maurice.libes@osupytheas.fr, didier.mallarino@osupytheas.fr
Project:EMSO http://www.emso-fr.org/EMSO-France
Depth: 2436.0 m
Title:EMSO Ligure Ouest : Data MII capteur MICROCAT
DateTime_Computer,Latitude,Longitude,Temperature,Conductivity,Pressure,DateTime_Instrument
DateTime_Computer,Latitude,Longitude,degC,S m-1,dbar,DateTime_Instrument
2023-09-29T00:02:03Z,42.805,6.029,13.3026,4.60090,2470.707,2023-9-29T02:04:26Z
2023-09-29T00:05:06Z,42.805,6.029,13.3025,4.60091,2470.67,2023-9-29T02:07:29Z
2023-09-29T00:08:09Z,42.805,6.029,13.3027,4.60092,2470.707,2023-9-29T02:10:33Z
2023-09-29T00:11:12Z,42.805,6.029,13.3029,4.60090,2470.661,2023-9-29T02:13:36Z
2023-09-29T00:14:16Z,42.805,6.029,13.3029,4.60091,2470.684,2023-9-29T02:16:39Z
2023-09-29T00:17:19Z,42.805,6.029,13.3029,4.60092,2470.637,2023-9-29T02:19:42Z
2023-09-29T00:20:22Z,42.805,6.029,13.3029,4.60092,2470.661,2023-9-29T02:22:45Z
2023-09-29T00:23:25Z,42.805,6.029,13.3029,4.60090,2470.646,2023-9-29T02:25:48Z
2023-09-29T00:26:28Z,42.805,6.029,13.3029,4.60089,2470.646,2023-9-29T02:28:51Z
2023-09-29T00:29:31Z,42.805,6.029,13.3026,4.60089,2470.661,2023-9-29T02:31:54Z
2023-09-29T00:32:34Z,42.805,6.029,13.3024,4.60090,2470.624,2023-9-29T02:34:57Z
2023-09-29T00:35:37Z,42.805,6.029,13.3026,4.60091,2470.624,2023-9-29T02:38:00Z
2023-09-29T00:38:40Z,42.805,6.029,13.3030,4.60089,2470.646,2023-9-29T02:41:03Z
2023-09-29T00:41:43Z,42.805,6.029,13.3027,4.60090,2470.646,2023-9-29T02:44:06Z
2023-09-29T00:44:46Z,42.805,6.029,13.3027,4.60091,2470.624,2023-9-29T02:47:10Z
2023-09-29T00:47:50Z,42.805,6.029,13.3024,4.60089,2470.624,2023-9-29T02:50:13Z
2023-09-29T00:50:53Z,42.805,6.029,13.3027,4.60089,2470.646,2023-9-29T02:53:16Z
2023-09-29T00:53:56Z,42.805,6.029,13.3025,4.60089,2470.67,2023-9-29T02:56:19Z
2023-09-29T00:56:59Z,42.805,6.029,13.3028,4.60089,2470.624,2023-9-29T02:59:22Z
2023-09-29T01:00:02Z,42.805,6.029,13.3027,4.60089,2470.614,2023-9-29T03:02:25Z
2023-09-29T01:03:05Z,42.805,6.029,13.3023,4.60092,2470.624,2023-9-29T03:05:28Z
2023-09-29T01:06:08Z,42.805,6.029,13.3028,4.60091,2470.661,2023-9-29T03:08:31Z
2023-09-29T01:09:11Z,42.805,6.029,13.3029,4.60090,2470.646,2023-9-29T03:11:34Z
2023-09-29T01:12:14Z,42.805,6.029,13.3027,4.60091,2470.646,2023-9-29T03:14:37Z
2023-09-29T01:15:17Z,42.805,6.029,13.3026,4.60089,2470.646,2023-9-29T03:17:40Z
2023-09-29T01:18:20Z,42.805,6.029,13.3026,4.60090,2470.624,2023-9-29T03:20:43Z
2023-09-29T01:21:23Z,42.805,6.029,13.3029,4.60090,2470.614,2023-9-29T03:23:47Z
2023-09-29T01:24:26Z,42.805,6.029,13.3029,4.60089,2470.6,2023-9-29T03:26:50Z
2023-09-29T01:27:30Z,42.805,6.029,13.3025,4.60090,2470.637,2023-9-29T03:29:53Z
2023-09-29T01:30:33Z,42.805,6.029,13.3029,4.60090,2470.646,2023-9-29T03:32:56Z
2023-09-29T01:33:36Z,42.805,6.029,13.3029,4.60090,2470.646,2023-9-29T03:35:59Z
2023-09-29T01:36:39Z,42.805,6.029,13.3028,4.60089,2470.646,2023-9-29T03:39:02Z
2023-09-29T01:39:42Z,42.805,6.029,13.3029,4.60091,2470.661,2023-9-29T03:42:05Z
2023-09-29T01:42:45Z,42.805,6.029,13.3026,4.60089,2470.646,2023-9-29T03:45:08Z
2023-09-29T01:45:48Z,42.805,6.029,13.3031,4.60090,2470.624,2023-9-29T03:48:11Z
2023-09-29T01:48:51Z,42.805,6.029,13.3029,4.60089,2470.6,2023-9-29T03:51:14Z
2023-09-29T01:51:54Z,42.805,6.029,13.3028,4.60089,2470.637,2023-9-29T03:54:17Z
2023-09-29T01:54:57Z,42.805,6.029,13.3027,4.60089,2470.6,2023-9-29T03:57:20Z
2023-09-29T01:58:00Z,42.805,6.029,13.3026,4.60090,2470.637,2023-9-29T04:00:24Z
2023-09-29T02:01:04Z,42.805,6.029,13.3024,4.60089,2470.624,2023-9-29T04:03:27Z
2023-09-29T02:04:07Z,42.805,6.029,13.3031,4.60090,2470.624,2023-9-29T04:06:30Z
2023-09-29T02:07:10Z,42.805,6.029,13.3031,4.60089,2470.684,2023-9-29T04:09:33Z
2023-09-29T02:10:13Z,42.805,6.029,13.3026,4.60093,2470.624,2023-9-29T04:12:36Z
2023-09-29T02:13:16Z,42.805,6.029,13.3027,4.60094,2470.661,2023-9-29T04:15:39Z
2023-09-29T02:16:19Z,42.805,6.029,13.3028,4.60091,2470.624,2023-9-29T04:18:42Z
2023-09-29T02:19:22Z,42.805,6.029,13.3028,4.60091,2470.661,2023-9-29T04:21:45Z
2023-09-29T02:22:25Z,42.805,6.029,13.3026,4.60089,2470.624,2023-9-29T04:24:48Z
2023-09-29T02:25:28Z,42.805,6.029,13.3029,4.60090,2470.646,2023-9-29T04:27:51Z
2023-09-29T02:28:31Z,42.805,6.029,13.3026,4.60089,2470.646,2023-9-29T04:30:54Z
2023-09-29T02:31:34Z,42.805,6.029,13.3032,4.60089,2470.684,2023-9-29T04:33:57Z
2023-09-29T02:34:37Z,42.805,6.029,13.3031,4.60090,2470.661,2023-9-29T04:37:01Z
2023-09-29T02:37:40Z,42.805,6.029,13.3031,4.60090,2470.661,2023-9-29T04:40:04Z
2023-09-29T02:40:44Z,42.805,6.029,13.3029,4.60090,2470.624,2023-9-29T04:43:07Z
2023-09-29T02:43:47Z,42.805,6.029,13.3030,4.60090,2470.684,2023-9-29T04:46:10Z
2023-09-29T02:46:50Z,42.805,6.029,13.3029,4.60090,2470.661,2023-9-29T04:49:13Z
2023-09-29T02:49:53Z,42.805,6.029,13.3024,4.60091,2470.646,2023-9-29T04:52:16Z
2023-09-29T02:52:56Z,42.805,6.029,13.3027,4.60090,2470.646,2023-9-29T04:55:19Z
2023-09-29T02:55:59Z,42.805,6.029,13.3026,4.60091,2470.661,2023-9-29T04:58:22Z
2023-09-29T02:59:02Z,42.805,6.029,13.3025,4.60091,2470.637,2023-9-29T05:01:25Z
2023-09-29T03:02:05Z,42.805,6.029,13.3026,4.60090,2470.684,2023-9-29T05:04:28Z
2023-09-29T03:05:08Z,42.805,6.029,13.3026,4.60092,2470.684,2023-9-29T05:07:31Z
2023-09-29T03:08:11Z,42.805,6.029,13.3025,4.60092,2470.67,2023-9-29T05:10:34Z
2023-09-29T03:11:14Z,42.805,6.029,13.3022,4.60091,2470.646,2023-9-29T05:13:38Z
2023-09-29T03:14:17Z,42.805,6.029,13.3026,4.60091,2470.67,2023-9-29T05:16:41Z
2023-09-29T03:17:21Z,42.805,6.029,13.3028,4.60091,2470.67,2023-9-29T05:19:44Z
2023-09-29T03:20:24Z,42.805,6.029,13.3029,4.60092,2470.67,2023-9-29T05:22:47Z
2023-09-29T03:23:27Z,42.805,6.029,13.3028,4.60090,2470.693,2023-9-29T05:25:50Z
2023-09-29T03:26:30Z,42.805,6.029,13.3026,4.60090,2470.656,2023-9-29T05:28:53Z
2023-09-29T03:29:33Z,42.805,6.029,13.3026,4.60090,2470.67,2023-9-29T05:31:56Z
2023-09-29T03:32:36Z,42.805,6.029,13.3024,4.60089,2470.693,2023-9-29T05:34:59Z
2023-09-29T03:35:39Z,42.805,6.029,13.3026,4.60091,2470.707,2023-9-29T05:38:02Z
2023-09-29T03:38:42Z,42.805,6.029,13.3024,4.60092,2470.717,2023-9-29T05:41:05Z
2023-09-29T03:41:45Z,42.805,6.029,13.3029,4.60091,2470.684,2023-9-29T05:44:08Z
2023-09-29T03:44:48Z,42.805,6.029,13.3027,4.60096,2470.693,2023-9-29T05:47:11Z
2023-09-29T03:47:51Z,42.805,6.029,13.3029,4.60092,2470.693,2023-9-29T05:50:15Z
2023-09-29T03:50:54Z,42.805,6.029,13.3026,4.60093,2470.693,2023-9-29T05:53:18Z
2023-09-29T03:53:58Z,42.805,6.029,13.3029,4.60091,2470.717,2023-9-29T05:56:21Z
2023-09-29T03:57:01Z,42.805,6.029,13.3026,4.60091,2470.693,2023-9-29T05:59:24Z
2023-09-29T04:00:04Z,42.805,6.029,13.3024,4.60092,2470.707,2023-9-29T06:02:27Z
2023-09-29T04:03:07Z,42.805,6.029,13.3033,4.60091,2470.74,2023-9-29T06:05:30Z
2023-09-29T04:06:10Z,42.805,6.029,13.3028,4.60094,2470.717,2023-9-29T06:08:33Z
2023-09-29T04:09:13Z,42.805,6.029,13.3029,4.60092,2470.717,2023-9-29T06:11:36Z
2023-09-29T04:12:16Z,42.805,6.029,13.3029,4.60092,2470.74,2023-9-29T06:14:39Z
2023-09-29T04:15:19Z,42.805,6.029,13.3026,4.60092,2470.717,2023-9-29T06:17:42Z
2023-09-29T04:18:22Z,42.805,6.029,13.3030,4.60092,2470.74,2023-9-29T06:20:45Z
2023-09-29T04:21:25Z,42.805,6.029,13.3031,4.60093,2470.754,2023-9-29T06:23:48Z
2023-09-29T04:24:28Z,42.805,6.029,13.3030,4.60092,2470.74,2023-9-29T06:26:52Z
2023-09-29T04:27:32Z,42.805,6.029,13.3026,4.60092,2470.763,2023-9-29T06:29:55Z
2023-09-29T04:30:35Z,42.805,6.029,13.3026,4.60092,2470.754,2023-9-29T06:32:58Z
2023-09-29T04:33:38Z,42.805,6.029,13.3027,4.60097,2470.717,2023-9-29T06:36:01Z
2023-09-29T04:36:41Z,42.805,6.029,13.3030,4.60092,2470.74,2023-9-29T06:39:04Z
2023-09-29T04:39:44Z,42.805,6.029,13.3029,4.60097,2470.777,2023-9-29T06:42:07Z
2023-09-29T04:42:47Z,42.805,6.029,13.3030,4.60097,2470.74,2023-9-29T06:45:10Z
2023-09-29T04:45:50Z,42.805,6.029,13.3027,4.60093,2470.763,2023-9-29T06:48:14Z
2023-09-29T04:48:53Z,42.805,6.029,13.3029,4.60099,2470.8,2023-9-29T06:51:17Z
2023-09-29T04:51:57Z,42.805,6.029,13.3030,4.60093,2470.787,2023-9-29T06:54:20Z
2023-09-29T04:55:00Z,42.805,6.029,13.3024,4.60092,2470.763,2023-9-29T06:57:23Z
2023-09-29T04:58:03Z,42.805,6.029,13.3024,4.60092,2470.763,2023-9-29T07:00:26Z
2023-09-29T05:01:06Z,42.805,6.029,13.3029,4.60094,2470.787,2023-9-29T07:03:29Z
2023-09-29T05:04:09Z,42.805,6.029,13.3027,4.60092,2470.8,2023-9-29T07:06:32Z
2023-09-29T05:07:12Z,42.805,6.029,13.3027,4.60094,2470.824,2023-9-29T07:09:35Z
2023-09-29T05:10:15Z,42.805,6.029,13.3025,4.60094,2470.763,2023-9-29T07:12:38Z
2023-09-29T05:13:18Z,42.805,6.029,13.3026,4.60093,2470.8,2023-9-29T07:15:41Z
2023-09-29T05:16:21Z,42.805,6.029,13.3028,4.60094,2470.833,2023-9-29T07:18:44Z
2023-09-29T05:19:24Z,42.805,6.029,13.3029,4.60094,2470.8,2023-9-29T07:21:47Z
2023-09-29T05:22:27Z,42.805,6.029,13.3025,4.60094,2470.824,2023-9-29T07:24:51Z
2023-09-29T05:25:30Z,42.805,6.029,13.3029,4.60097,2470.81,2023-9-29T07:27:54Z
2023-09-29T05:28:34Z,42.805,6.029,13.3030,4.60093,2470.81,2023-9-29T07:30:57Z
2023-09-29T05:31:37Z,42.805,6.029,13.3029,4.60092,2470.787,2023-9-29T07:34:00Z
2023-09-29T05:34:40Z,42.805,6.029,13.3025,4.60094,2470.81,2023-9-29T07:37:03Z
2023-09-29T05:37:43Z,42.805,6.029,13.3027,4.60092,2470.763,2023-9-29T07:40:06Z
2023-09-29T05:40:46Z,42.805,6.029,13.3024,4.60092,2470.833,2023-9-29T07:43:09Z
2023-09-29T05:43:49Z,42.805,6.029,13.3036,4.60092,2470.773,2023-9-29T07:46:12Z
2023-09-29T05:46:52Z,42.805,6.029,13.3028,4.60095,2470.787,2023-9-29T07:49:15Z
2023-09-29T05:49:55Z,42.805,6.029,13.3029,4.60094,2470.81,2023-9-29T07:52:18Z
2023-09-29T05:52:58Z,42.805,6.029,13.3024,4.60093,2470.824,2023-9-29T07:55:21Z
2023-09-29T05:56:01Z,42.805,6.029,13.3029,4.60093,2470.833,2023-9-29T07:58:24Z
2023-09-29T05:59:04Z,42.805,6.029,13.3029,4.60094,2470.81,2023-9-29T08:01:28Z
2023-09-29T06:02:07Z,42.805,6.029,13.3027,4.60093,2470.833,2023-9-29T08:04:31Z
2023-09-29T06:05:11Z,42.805,6.029,13.3030,4.60095,2470.824,2023-9-29T08:07:34Z
2023-09-29T06:08:14Z,42.805,6.029,13.3030,4.60092,2470.833,2023-9-29T08:10:37Z
2023-09-29T06:11:17Z,42.805,6.029,13.3029,4.60093,2470.847,2023-9-29T08:13:40Z
2023-09-29T06:14:20Z,42.805,6.029,13.3029,4.60092,2470.81,2023-9-29T08:16:43Z
2023-09-29T06:17:23Z,42.805,6.029,13.3030,4.60094,2470.787,2023-9-29T08:19:46Z
2023-09-29T06:20:26Z,42.805,6.029,13.3026,4.60092,2470.81,2023-9-29T08:22:49Z
2023-09-29T06:23:29Z,42.805,6.029,13.3027,4.60093,2470.824,2023-9-29T08:25:52Z
2023-09-29T06:26:32Z,42.805,6.029,13.3029,4.60093,2470.81,2023-9-29T08:28:55Z
2023-09-29T06:29:35Z,42.805,6.029,13.3030,4.60093,2470.847,2023-9-29T08:31:58Z
2023-09-29T06:32:38Z,42.805,6.029,13.3027,4.60094,2470.81,2023-9-29T08:35:02Z
2023-09-29T06:35:41Z,42.805,6.029,13.3029,4.60094,2470.847,2023-9-29T08:38:05Z
2023-09-29T06:38:45Z,42.805,6.029,13.3031,4.60095,2470.833,2023-9-29T08:41:08Z
2023-09-29T06:41:48Z,42.805,6.029,13.3027,4.60092,2470.847,2023-9-29T08:44:11Z
2023-09-29T06:44:51Z,42.805,6.029,13.3032,4.60093,2470.833,2023-9-29T08:47:14Z
2023-09-29T06:47:54Z,42.805,6.029,13.3026,4.60097,2470.81,2023-9-29T08:50:17Z
2023-09-29T06:50:57Z,42.805,6.029,13.3024,4.60094,2470.833,2023-9-29T08:53:20Z
2023-09-29T06:54:00Z,42.805,6.029,13.3027,4.60093,2470.824,2023-9-29T08:56:23Z
2023-09-29T06:57:03Z,42.805,6.029,13.3025,4.60094,2470.833,2023-9-29T08:59:26Z
2023-09-29T07:00:06Z,42.805,6.029,13.3028,4.60094,2470.833,2023-9-29T09:02:29Z
2023-09-29T07:03:09Z,42.805,6.029,13.3026,4.60094,2470.824,2023-9-29T09:05:32Z
2023-09-29T07:06:12Z,42.805,6.029,13.3027,4.60093,2470.833,2023-9-29T09:08:35Z
2023-09-29T07:09:15Z,42.805,6.029,13.3027,4.60093,2470.847,2023-9-29T09:11:39Z
2023-09-29T07:12:18Z,42.805,6.029,13.3028,4.60094,2470.81,2023-9-29T09:14:42Z
2023-09-29T07:15:22Z,42.805,6.029,13.3032,4.60095,2470.81,2023-9-29T09:17:45Z
2023-09-29T07:18:25Z,42.805,6.029,13.3030,4.60093,2470.81,2023-9-29T09:20:48Z
2023-09-29T07:21:28Z,42.805,6.029,13.3031,4.60096,2470.847,2023-9-29T09:23:51Z
2023-09-29T07:24:31Z,42.805,6.029,13.3029,4.60092,2470.857,2023-9-29T09:26:54Z
2023-09-29T07:27:34Z,42.805,6.029,13.3027,4.60093,2470.847,2023-9-29T09:29:57Z
2023-09-29T07:30:37Z,42.805,6.029,13.3028,4.60094,2470.81,2023-9-29T09:33:00Z
2023-09-29T07:33:40Z,42.805,6.029,13.3029,4.60094,2470.81,2023-9-29T09:36:03Z
2023-09-29T07:36:43Z,42.805,6.029,13.3025,4.60093,2470.824,2023-9-29T09:39:06Z
2023-09-29T07:39:46Z,42.805,6.029,13.3031,4.60094,2470.833,2023-9-29T09:42:09Z
2023-09-29T07:42:49Z,42.805,6.029,13.3025,4.60094,2470.847,2023-9-29T09:45:12Z
2023-09-29T07:45:52Z,42.805,6.029,13.3024,4.60092,2470.81,2023-9-29T09:48:15Z
2023-09-29T07:48:55Z,42.805,6.029,13.3031,4.60094,2470.824,2023-9-29T09:51:19Z
2023-09-29T07:51:59Z,42.805,6.029,13.3028,4.60095,2470.81,2023-9-29T09:54:22Z
2023-09-29T07:55:02Z,42.805,6.029,13.3029,4.60093,2470.787,2023-9-29T09:57:25Z
2023-09-29T07:58:05Z,42.805,6.029,13.3024,4.60092,2470.81,2023-9-29T10:00:28Z
2023-09-29T08:01:08Z,42.805,6.029,13.3025,4.60093,2470.847,2023-9-29T10:03:31Z
2023-09-29T08:04:11Z,42.805,6.029,13.3027,4.60092,2470.81,2023-9-29T10:06:34Z
2023-09-29T08:07:14Z,42.805,6.029,13.3029,4.60093,2470.824,2023-9-29T10:09:37Z
2023-09-29T08:10:17Z,42.805,6.029,13.3031,4.60093,2470.787,2023-9-29T10:12:40Z
2023-09-29T08:13:20Z,42.805,6.029,13.3028,4.60095,2470.787,2023-9-29T10:15:43Z
2023-09-29T08:16:23Z,42.805,6.029,13.3025,4.60094,2470.824,2023-9-29T10:18:46Z
2023-09-29T08:19:26Z,42.805,6.029,13.3029,4.60092,2470.81,2023-9-29T10:21:49Z
2023-09-29T08:22:29Z,42.805,6.029,13.3029,4.60094,2470.824,2023-9-29T10:24:53Z
2023-09-29T08:25:33Z,42.805,6.029,13.3030,4.60094,2470.81,2023-9-29T10:27:56Z
2023-09-29T08:28:36Z,42.805,6.029,13.3026,4.60093,2470.824,2023-9-29T10:30:59Z
2023-09-29T08:31:39Z,42.805,6.029,13.3027,4.60093,2470.8,2023-9-29T10:34:02Z
2023-09-29T08:34:42Z,42.805,6.029,13.3027,4.60093,2470.81,2023-9-29T10:37:05Z
2023-09-29T08:37:45Z,42.805,6.029,13.3029,4.60094,2470.81,2023-9-29T10:40:08Z
2023-09-29T08:40:48Z,42.805,6.029,13.3026,4.60093,2470.824,2023-9-29T10:43:11Z
2023-09-29T08:43:51Z,42.805,6.029,13.3030,4.60092,2470.763,2023-9-29T10:46:14Z
2023-09-29T08:46:54Z,42.805,6.029,13.3030,4.60096,2470.8,2023-9-29T10:49:17Z
2023-09-29T08:49:57Z,42.805,6.029,13.3028,4.60092,2470.81,2023-9-29T10:52:20Z
2023-09-29T08:53:00Z,42.805,6.029,13.3029,4.60096,2470.81,2023-9-29T10:55:23Z
2023-09-29T08:56:03Z,42.805,6.029,13.3024,4.60093,2470.763,2023-9-29T10:58:27Z
2023-09-29T08:59:06Z,42.805,6.029,13.3026,4.60092,2470.75,2023-9-29T11:01:30Z
2023-09-29T09:02:10Z,42.805,6.029,13.3028,4.60092,2470.763,2023-9-29T11:04:33Z
2023-09-29T09:05:13Z,42.805,6.029,13.3028,4.60093,2470.763,2023-9-29T11:07:36Z
2023-09-29T09:08:16Z,42.805,6.029,13.3026,4.60092,2470.763,2023-9-29T11:10:39Z
2023-09-29T09:11:19Z,42.805,6.029,13.3029,4.60092,2470.847,2023-9-29T11:13:42Z
2023-09-29T09:14:22Z,42.805,6.029,13.3028,4.60092,2470.777,2023-9-29T11:16:45Z
2023-09-29T09:17:25Z,42.805,6.029,13.3026,4.60093,2470.787,2023-9-29T11:19:48Z
2023-09-29T09:20:28Z,42.805,6.029,13.3030,4.60092,2470.754,2023-9-29T11:22:51Z
2023-09-29T09:23:31Z,42.805,6.029,13.3026,4.60092,2470.787,2023-9-29T11:25:54Z
2023-09-29T09:26:34Z,42.805,6.029,13.3026,4.60092,2470.763,2023-9-29T11:28:57Z
2023-09-29T09:29:37Z,42.805,6.029,13.3026,4.60094,2470.74,2023-9-29T11:32:01Z
2023-09-29T09:32:40Z,42.805,6.029,13.3025,4.60094,2470.74,2023-9-29T11:35:04Z
2023-09-29T09:35:44Z,42.805,6.029,13.3028,4.60093,2470.787,2023-9-29T11:38:07Z
2023-09-29T09:38:47Z,42.805,6.029,13.3027,4.60095,2470.787,2023-9-29T11:41:10Z
2023-09-29T09:41:50Z,42.805,6.029,13.3029,4.60094,2470.763,2023-9-29T11:44:13Z
2023-09-29T09:44:53Z,42.805,6.029,13.3026,4.60092,2470.777,2023-9-29T11:47:16Z
2023-09-29T09:47:56Z,42.805,6.029,13.3029,4.60092,2470.763,2023-9-29T11:50:19Z
2023-09-29T09:50:59Z,42.805,6.029,13.3029,4.60092,2470.763,2023-9-29T11:53:22Z
2023-09-29T09:54:02Z,42.805,6.029,13.3025,4.60093,2470.754,2023-9-29T11:56:25Z
2023-09-29T09:57:05Z,42.805,6.029,13.3028,4.60092,2470.73,2023-9-29T11:59:28Z
2023-09-29T10:00:08Z,42.805,6.029,13.3029,4.60092,2470.74,2023-9-29T12:02:31Z
2023-09-29T10:03:11Z,42.805,6.029,13.3031,4.60094,2470.74,2023-9-29T12:05:35Z
2023-09-29T10:06:14Z,42.805,6.029,13.3024,4.60093,2470.763,2023-9-29T12:08:38Z
2023-09-29T10:09:18Z,42.805,6.029,13.3026,4.60093,2470.754,2023-9-29T12:11:41Z
2023-09-29T10:12:21Z,42.805,6.029,13.3024,4.60092,2470.74,2023-9-29T12:14:44Z
2023-09-29T10:15:24Z,42.805,6.029,13.3026,4.60093,2470.777,2023-9-29T12:17:47Z
2023-09-29T10:18:27Z,42.805,6.029,13.3024,4.60092,2470.754,2023-9-29T12:20:50Z
2023-09-29T10:21:30Z,42.805,6.029,13.3029,4.60092,2470.754,2023-9-29T12:23:53Z
2023-09-29T10:24:33Z,42.805,6.029,13.3028,4.60092,2470.74,2023-9-29T12:26:56Z
2023-09-29T10:27:36Z,42.805,6.029,13.3028,4.60094,2470.717,2023-9-29T12:29:59Z
2023-09-29T10:30:41Z,42.805,6.029,13.3028,4.60092,2470.754,2023-9-29T12:33:04Z
2023-09-29T10:33:44Z,42.805,6.029,13.3029,4.60092,2470.74,2023-9-29T12:36:07Z
2023-09-29T10:36:47Z,42.805,6.029,13.3026,4.60092,2470.74,2023-9-29T12:39:10Z
2023-09-29T10:39:50Z,42.805,6.029,13.3025,4.60092,2470.693,2023-9-29T12:42:13Z
2023-09-29T10:42:53Z,42.805,6.029,13.3028,4.60092,2470.717,2023-9-29T12:45:16Z
2023-09-29T10:45:56Z,42.805,6.029,13.3027,4.60092,2470.717,2023-9-29T12:48:19Z
2023-09-29T10:48:59Z,42.805,6.029,13.3024,4.60092,2470.693,2023-9-29T12:51:22Z
2023-09-29T10:52:02Z,42.805,6.029,13.3031,4.60092,2470.717,2023-9-29T12:54:25Z
2023-09-29T10:55:05Z,42.805,6.029,13.3025,4.60094,2470.717,2023-9-29T12:57:29Z
2023-09-29T10:58:08Z,42.805,6.029,13.3024,4.60095,2470.73,2023-9-29T13:00:32Z
2023-09-29T11:01:12Z,42.805,6.029,13.3026,4.60094,2470.73,2023-9-29T13:03:35Z
2023-09-29T11:04:15Z,42.805,6.029,13.3025,4.60093,2470.693,2023-9-29T13:06:38Z
2023-09-29T11:07:18Z,42.805,6.029,13.3030,4.60091,2470.693,2023-9-29T13:09:41Z
2023-09-29T11:10:21Z,42.805,6.029,13.3031,4.60092,2470.74,2023-9-29T13:12:44Z
2023-09-29T11:13:24Z,42.805,6.029,13.3024,4.60092,2470.684,2023-9-29T13:15:47Z
2023-09-29T11:16:27Z,42.805,6.029,13.3030,4.60092,2470.693,2023-9-29T13:18:50Z
2023-09-29T11:19:30Z,42.805,6.029,13.3029,4.60092,2470.67,2023-9-29T13:21:53Z
2023-09-29T11:22:33Z,42.805,6.029,13.3028,4.60092,2470.707,2023-9-29T13:24:56Z
2023-09-29T11:25:36Z,42.805,6.029,13.3031,4.60091,2470.707,2023-9-29T13:27:59Z
2023-09-29T11:28:39Z,42.805,6.029,13.3028,4.60092,2470.73,2023-9-29T13:31:02Z
2023-09-29T11:31:42Z,42.805,6.029,13.3028,4.60093,2470.693,2023-9-29T13:34:06Z
2023-09-29T11:34:45Z,42.805,6.029,13.3029,4.60092,2470.646,2023-9-29T13:37:09Z
2023-09-29T11:37:49Z,42.805,6.029,13.3024,4.60091,2470.646,2023-9-29T13:40:12Z
2023-09-29T11:40:52Z,42.805,6.029,13.3031,4.60091,2470.646,2023-9-29T13:43:15Z
2023-09-29T11:43:55Z,42.805,6.029,13.3029,4.60092,2470.646,2023-9-29T13:46:18Z
2023-09-29T11:46:58Z,42.805,6.029,13.3029,4.60092,2470.67,2023-9-29T13:49:21Z
2023-09-29T11:50:01Z,42.805,6.029,13.3031,4.60092,2470.693,2023-9-29T13:52:24Z
2023-09-29T11:53:04Z,42.805,6.029,13.3028,4.60091,2470.693,2023-9-29T13:55:27Z
2023-09-29T11:56:07Z,42.805,6.029,13.3027,4.60091,2470.646,2023-9-29T13:58:30Z
2023-09-29T11:59:10Z,42.805,6.029,13.3026,4.60091,2470.646,2023-9-29T14:01:33Z
2023-09-29T12:02:13Z,42.805,6.029,13.3029,4.60091,2470.67,2023-9-29T14:04:36Z
2023-09-29T12:05:16Z,42.805,6.029,13.3029,4.60091,2470.646,2023-9-29T14:07:40Z
2023-09-29T12:08:19Z,42.805,6.029,13.3029,4.60092,2470.646,2023-9-29T14:10:43Z
2023-09-29T12:11:23Z,42.805,6.029,13.3029,4.60092,2470.646,2023-9-29T14:13:46Z
2023-09-29T12:14:26Z,42.805,6.029,13.3031,4.60092,2470.646,2023-9-29T14:16:49Z
2023-09-29T12:17:29Z,42.805,6.029,13.3029,4.60091,2470.67,2023-9-29T14:19:52Z
2023-09-29T12:20:32Z,42.805,6.029,13.3031,4.60092,2470.624,2023-9-29T14:22:55Z
2023-09-29T12:23:35Z,42.805,6.029,13.3029,4.60094,2470.661,2023-9-29T14:25:58Z
2023-09-29T12:26:38Z,42.805,6.029,13.3030,4.60092,2470.661,2023-9-29T14:29:01Z
2023-09-29T12:29:41Z,42.805,6.029,13.3026,4.60091,2470.661,2023-9-29T14:32:04Z
2023-09-29T12:32:44Z,42.805,6.029,13.3028,4.60091,2470.624,2023-9-29T14:35:07Z
2023-09-29T12:35:47Z,42.805,6.029,13.3031,4.60091,2470.661,2023-9-29T14:38:10Z
2023-09-29T12:38:50Z,42.805,6.029,13.3029,4.60091,2470.624,2023-9-29T14:41:13Z
2023-09-29T12:41:53Z,42.805,6.029,13.3027,4.60091,2470.624,2023-9-29T14:44:17Z
2023-09-29T12:44:56Z,42.805,6.029,13.3029,4.60090,2470.646,2023-9-29T14:47:20Z
2023-09-29T12:48:00Z,42.805,6.029,13.3029,4.60091,2470.624,2023-9-29T14:50:23Z
2023-09-29T12:51:03Z,42.805,6.029,13.3027,4.60091,2470.614,2023-9-29T14:53:26Z
2023-09-29T12:54:06Z,42.805,6.029,13.3026,4.60091,2470.646,2023-9-29T14:56:29Z
2023-09-29T12:57:09Z,42.805,6.029,13.3026,4.60091,2470.661,2023-9-29T14:59:32Z
2023-09-29T13:00:12Z,42.805,6.029,13.3028,4.60091,2470.637,2023-9-29T15:02:35Z
2023-09-29T13:03:15Z,42.805,6.029,13.3034,4.60092,2470.661,2023-9-29T15:05:38Z
2023-09-29T13:06:18Z,42.805,6.029,13.3029,4.60092,2470.637,2023-9-29T15:08:41Z
2023-09-29T13:09:21Z,42.805,6.029,13.3026,4.60091,2470.614,2023-9-29T15:11:44Z
2023-09-29T13:12:24Z,42.805,6.029,13.3027,4.60091,2470.661,2023-9-29T15:14:47Z
2023-09-29T13:15:27Z,42.805,6.029,13.3029,4.60090,2470.624,2023-9-29T15:17:51Z
2023-09-29T13:18:30Z,42.805,6.029,13.3030,4.60091,2470.6,2023-9-29T15:20:54Z
2023-09-29T13:21:34Z,42.805,6.029,13.3029,4.60091,2470.624,2023-9-29T15:23:57Z
2023-09-29T13:24:37Z,42.805,6.029,13.3030,4.60091,2470.614,2023-9-29T15:27:00Z
2023-09-29T13:27:40Z,42.805,6.029,13.3030,4.60092,2470.6,2023-9-29T15:30:03Z
2023-09-29T13:30:43Z,42.805,6.029,13.3029,4.60094,2470.586,2023-9-29T15:33:06Z
2023-09-29T13:33:46Z,42.805,6.029,13.3034,4.60091,2470.624,2023-9-29T15:36:09Z
2023-09-29T13:36:49Z,42.805,6.029,13.3028,4.60092,2470.624,2023-9-29T15:39:12Z
2023-09-29T13:39:52Z,42.805,6.029,13.3033,4.60091,2470.6,2023-9-29T15:42:15Z
2023-09-29T13:42:55Z,42.805,6.029,13.3030,4.60091,2470.624,2023-9-29T15:45:18Z
2023-09-29T13:45:58Z,42.805,6.029,13.3031,4.60094,2470.624,2023-9-29T15:48:21Z
2023-09-29T13:49:01Z,42.805,6.029,13.3023,4.60093,2470.624,2023-9-29T15:51:24Z
2023-09-29T13:52:04Z,42.805,6.029,13.3029,4.60091,2470.637,2023-9-29T15:54:28Z
2023-09-29T13:55:07Z,42.805,6.029,13.3032,4.60092,2470.624,2023-9-29T15:57:31Z
2023-09-29T13:58:11Z,42.805,6.029,13.3026,4.60090,2470.637,2023-9-29T16:00:34Z
2023-09-29T14:01:14Z,42.805,6.029,13.3033,4.60091,2470.6,2023-9-29T16:03:37Z
2023-09-29T14:04:17Z,42.805,6.029,13.3029,4.60091,2470.624,2023-9-29T16:06:40Z
2023-09-29T14:07:20Z,42.805,6.029,13.3029,4.60092,2470.614,2023-9-29T16:09:43Z
2023-09-29T14:10:23Z,42.805,6.029,13.3028,4.60092,2470.646,2023-9-29T16:12:46Z
2023-09-29T14:13:26Z,42.805,6.029,13.3034,4.60092,2470.646,2023-9-29T16:15:49Z
2023-09-29T14:16:29Z,42.805,6.029,13.3026,4.60091,2470.624,2023-9-29T16:18:52Z
2023-09-29T14:19:32Z,42.805,6.029,13.3026,4.60092,2470.646,2023-9-29T16:21:55Z
2023-09-29T14:22:35Z,42.805,6.029,13.3029,4.60091,2470.614,2023-9-29T16:24:58Z
2023-09-29T14:25:38Z,42.805,6.029,13.3031,4.60092,2470.646,2023-9-29T16:28:02Z
2023-09-29T14:28:41Z,42.805,6.029,13.3029,4.60091,2470.661,2023-9-29T16:31:05Z
2023-09-29T14:31:44Z,42.805,6.029,13.3029,4.60092,2470.646,2023-9-29T16:34:08Z
2023-09-29T14:34:48Z,42.805,6.029,13.3027,4.60094,2470.624,2023-9-29T16:37:11Z
2023-09-29T14:37:51Z,42.805,6.029,13.3031,4.60091,2470.637,2023-9-29T16:40:14Z
2023-09-29T14:40:54Z,42.805,6.029,13.3028,4.60091,2470.624,2023-9-29T16:43:17Z
2023-09-29T14:43:57Z,42.805,6.029,13.3033,4.60091,2470.624,2023-9-29T16:46:20Z
2023-09-29T14:47:00Z,42.805,6.029,13.3028,4.60092,2470.624,2023-9-29T16:49:23Z
2023-09-29T14:50:03Z,42.805,6.029,13.3029,4.60094,2470.684,2023-9-29T16:52:26Z
2023-09-29T14:53:06Z,42.805,6.029,13.3028,4.60091,2470.67,2023-9-29T16:55:29Z
2023-09-29T14:56:09Z,42.805,6.029,13.3026,4.60091,2470.67,2023-9-29T16:58:32Z
2023-09-29T14:59:12Z,42.805,6.029,13.3027,4.60093,2470.67,2023-9-29T17:01:35Z
2023-09-29T15:02:15Z,42.805,6.029,13.3027,4.60092,2470.646,2023-9-29T17:04:39Z
2023-09-29T15:05:18Z,42.805,6.029,13.3027,4.60092,2470.646,2023-9-29T17:07:42Z
2023-09-29T15:08:22Z,42.805,6.029,13.3026,4.60093,2470.67,2023-9-29T17:10:45Z
2023-09-29T15:11:25Z,42.805,6.029,13.3028,4.60092,2470.646,2023-9-29T17:13:48Z
2023-09-29T15:14:28Z,42.805,6.029,13.3028,4.60092,2470.693,2023-9-29T17:16:51Z